Change the Weather History Date:

Wednesday, February 6, 2013

  Actual Average Record
Temperature  
Mean Temperature 64 °F -  
Max Temperature 71 °F 63 °F 84 °F (2008)
Min Temperature 57 °F 44 °F 24 °F (2009)
Degree Days  
Heating Degree Days 1    
Growing Degree Days 14 (Base 50)    
Moisture  
Dew Point 53 °F    
Average Humidity 71    
Maximum Humidity 81    
Minimum Humidity 51    
Precipitation  
Precipitation 0.00 in - - ()
Sea Level Pressure  
Sea Level Pressure 30.12 in    
Wind  
Wind Speed 2 mph (East)    
Max Wind Speed 7 mph    
Max Gust Speed -    
Visibility 10 miles    
Events Rain    
Averages and records for this station are not official NWS values.
T = Trace of Precipitation, MM = Missing Value Source: NWS Daily Summary

Daily Weather History Graph

Daily Weather History Graph

Search for Another Location

Airport or City:

Trip Planner

Search our weather history database for the weather conditions in past years. The results will help you decide how hot, cold, wet, or windy it might be!

Date:

Astronomy

Feb. 06, 2013 Rise Set
Actual Time 7:13 AM EST 6:07 PM EST
Civil Twilight 6:48 AM EST 6:32 PM EST
Nautical Twilight 6:20 AM EST 7:00 PM EST
Astronomical Twilight 5:51 AM EST 7:28 PM EST
Moon 3:47 AM EST (2/6) 2:31 PM EST (2/6)
Length of Visible Light 11h 43m
Length of Day
10h 53m
Waning Crescent, 17% of the Moon is Illuminated
Feb 6
Waning Crescent
Feb 10
New
Feb 17
First Quarter
Feb 25
Full
Mar 4
Last Quarter

Hourly Weather History & Observations

Time (EST) Temp. Dew Point Humidity Pressure Visibility Wind Dir Wind Speed Gust Speed Precip Events Conditions
12:53 AM 57.9 °F 52.0 °F 81% 30.07 in 10.0 mi Calm Calm - N/A   Mostly Cloudy
2:53 AM 60.1 °F 50.0 °F 69% 30.07 in 10.0 mi SSW 4.6 mph - 0.00 in   Overcast
3:53 AM 60.1 °F 51.1 °F 72% 30.07 in 10.0 mi Calm Calm - 0.00 in Rain Light Rain
4:53 AM 60.1 °F 51.1 °F 72% 30.08 in 10.0 mi Calm Calm - 0.00 in   Overcast
5:53 AM 60.1 °F 53.1 °F 78% 30.09 in 10.0 mi Calm Calm - N/A   Overcast
6:53 AM 60.1 °F 53.1 °F 78% 30.12 in 10.0 mi Calm Calm - 0.00 in   Overcast
7:53 AM 60.1 °F 53.1 °F 78% 30.14 in 10.0 mi Calm Calm - N/A   Overcast
8:27 AM 60.8 °F 53.6 °F 77% 30.14 in 10.0 mi Calm Calm - 0.00 in   Overcast
8:53 AM 60.1 °F 54.0 °F 80% 30.14 in 10.0 mi Calm Calm - 0.00 in   Overcast
9:53 AM 64.0 °F 54.0 °F 70% 30.16 in 10.0 mi Calm Calm - N/A   Overcast
10:53 AM 66.0 °F 54.0 °F 65% 30.17 in 10.0 mi Calm Calm - N/A   Overcast
11:53 AM 66.9 °F 52.0 °F 59% 30.16 in 10.0 mi SE 5.8 mph - N/A   Overcast
12:53 PM 71.1 °F 52.0 °F 51% 30.14 in 10.0 mi Variable 4.6 mph - N/A   Overcast
1:53 PM 69.1 °F 53.1 °F 57% 30.12 in 10.0 mi East 6.9 mph - N/A   Overcast
2:53 PM 66.9 °F 53.1 °F 61% 30.11 in 10.0 mi ESE 6.9 mph - N/A   Overcast
3:53 PM 66.0 °F 54.0 °F 65% 30.11 in 7.0 mi East 5.8 mph - N/A   Overcast
4:53 PM 64.9 °F 54.0 °F 68% 30.12 in 10.0 mi East 3.5 mph - N/A   Overcast
5:53 PM 64.0 °F 53.1 °F 67% 30.12 in 10.0 mi Variable 4.6 mph - N/A   Overcast
6:53 PM 64.0 °F 54.0 °F 70% 30.13 in 10.0 mi East 3.5 mph - N/A   Overcast
7:53 PM 62.1 °F 55.0 °F 78% 30.13 in 10.0 mi East 4.6 mph - N/A   Mostly Cloudy
8:53 PM 63.0 °F 55.0 °F 75% 30.14 in 10.0 mi East 4.6 mph - N/A   Overcast
9:53 PM 63.0 °F 55.0 °F 75% 30.14 in 10.0 mi East 3.5 mph - N/A   Overcast
10:53 PM 63.0 °F 55.9 °F 78% 30.14 in 10.0 mi Calm Calm - N/A   Overcast
11:53 PM 63.0 °F 55.9 °F 78% 30.12 in 10.0 mi East 5.8 mph - N/A   Mostly Cloudy